Time,TemperatureF,DewpointF,PressureIn,WindDirection,WindDirectionDegrees,WindSpeedMPH,WindSpeedGustMPH,Humidity,HourlyPrecipIn,Conditions,Clouds,dailyrainin,SoftwareType,DateUTC
2013-02-19 00:00:00,18.0,-99.9,-100.00,WNW,294,11.0,24.0,-999,0.00,,,0.00,,2013-02-19 06:00:00,
2013-02-19 00:42:00,18.0,-99.9,-100.00,WNW,294,11.0,24.0,-999,0.00,,,0.00,,2013-02-19 06:42:00,
2013-02-19 00:53:00,18.0,-99.9,-100.00,WNW,294,11.0,24.0,-999,0.00,,,0.00,,2013-02-19 06:53:00,
2013-02-19 01:00:00,18.0,-99.9,-100.00,WNW,295,11.0,23.0,-999,0.00,,,0.00,,2013-02-19 07:00:00,
2013-02-19 01:42:00,18.0,-99.9,-100.00,WNW,295,11.0,23.0,-999,0.00,,,0.00,,2013-02-19 07:42:00,
2013-02-19 01:52:00,18.0,-99.9,-100.00,WNW,295,11.0,23.0,-999,0.00,,,0.00,,2013-02-19 07:52:00,
2013-02-19 02:00:00,17.0,-99.9,-100.00,NW,306,12.0,22.0,-999,0.00,,,0.00,,2013-02-19 08:00:00,
2013-02-19 02:42:00,17.0,-99.9,-100.00,NW,306,12.0,22.0,-999,0.00,,,0.00,,2013-02-19 08:42:00,
2013-02-19 02:52:00,17.0,-99.9,-100.00,NW,306,12.0,22.0,-999,0.00,,,0.00,,2013-02-19 08:52:00,
2013-02-19 03:00:00,15.0,-99.9,-100.00,WNW,303,10.0,23.0,-999,0.00,,,0.00,,2013-02-19 09:00:00,
2013-02-19 03:42:00,15.0,-99.9,-100.00,WNW,303,10.0,23.0,-999,0.00,,,0.00,,2013-02-19 09:42:00,
2013-02-19 03:53:00,15.0,-99.9,-100.00,WNW,303,10.0,23.0,-999,0.00,,,0.00,,2013-02-19 09:53:00,
2013-02-19 04:00:00,14.0,-99.9,-100.00,WNW,297,12.0,26.0,-999,0.00,,,0.00,,2013-02-19 10:00:00,
2013-02-19 04:42:00,14.0,-99.9,-100.00,WNW,297,12.0,26.0,-999,0.00,,,0.00,,2013-02-19 10:42:00,
2013-02-19 04:52:00,14.0,-99.9,-100.00,WNW,297,12.0,26.0,-999,0.00,,,0.00,,2013-02-19 10:52:00,
2013-02-19 05:00:00,12.0,-99.9,-100.00,NW,307,12.0,26.0,-999,0.00,,,0.00,,2013-02-19 11:00:00,
2013-02-19 05:42:00,12.0,-99.9,-100.00,NW,307,12.0,26.0,-999,0.00,,,0.00,,2013-02-19 11:42:00,
2013-02-19 05:52:00,12.0,-99.9,-100.00,NW,307,12.0,26.0,-999,0.00,,,0.00,,2013-02-19 11:52:00,
2013-02-19 06:00:00,12.0,-99.9,-100.00,WNW,303,11.0,26.0,-999,0.00,,,0.00,,2013-02-19 12:00:00,
2013-02-19 06:42:00,12.0,-99.9,-100.00,WNW,303,11.0,26.0,-999,0.00,,,0.00,,2013-02-19 12:42:00,
2013-02-19 06:53:00,12.0,-99.9,-100.00,WNW,303,11.0,26.0,-999,0.00,,,0.00,,2013-02-19 12:53:00,
2013-02-19 07:00:00,14.0,-99.9,-100.00,WNW,301,12.0,25.0,-999,0.00,,,0.00,,2013-02-19 13:00:00,
2013-02-19 07:42:00,14.0,-99.9,-100.00,WNW,301,12.0,25.0,-999,0.00,,,0.00,,2013-02-19 13:42:00,
2013-02-19 07:52:00,14.0,-99.9,-100.00,WNW,301,12.0,25.0,-999,0.00,,,0.00,,2013-02-19 13:52:00,
2013-02-19 08:00:00,14.0,-99.9,-100.00,WNW,297,11.0,21.0,-999,0.00,,,0.00,,2013-02-19 14:00:00,
2013-02-19 08:42:00,14.0,-99.9,-100.00,WNW,297,11.0,21.0,-999,0.00,,,0.00,,2013-02-19 14:42:00,
2013-02-19 08:52:00,14.0,-99.9,-100.00,WNW,297,11.0,21.0,-999,0.00,,,0.00,,2013-02-19 14:52:00,
2013-02-19 09:00:00,16.0,-99.9,-100.00,WNW,294,12.0,27.0,-999,0.00,,,0.00,,2013-02-19 15:00:00,
2013-02-19 09:42:00,16.0,-99.9,-100.00,WNW,294,12.0,27.0,-999,0.00,,,0.00,,2013-02-19 15:42:00,
2013-02-19 09:52:00,16.0,-99.9,-100.00,WNW,294,12.0,27.0,-999,0.00,,,0.00,,2013-02-19 15:52:00,
2013-02-19 10:00:00,16.0,-99.9,-100.00,WNW,299,12.0,27.0,-999,0.00,,,0.00,,2013-02-19 16:00:00,
2013-02-19 10:42:00,16.0,-99.9,-100.00,WNW,299,12.0,27.0,-999,0.00,,,0.00,,2013-02-19 16:42:00,
2013-02-19 10:52:00,16.0,-99.9,-100.00,WNW,299,12.0,27.0,-999,0.00,,,0.00,,2013-02-19 16:52:00,
2013-02-19 11:00:00,18.0,-99.9,-100.00,WNW,301,10.0,21.0,-999,0.00,,,0.00,,2013-02-19 17:00:00,
2013-02-19 11:42:00,18.0,-99.9,-100.00,WNW,301,10.0,21.0,-999,0.00,,,0.00,,2013-02-19 17:42:00,
2013-02-19 11:52:00,18.0,-99.9,-100.00,WNW,301,10.0,21.0,-999,0.00,,,0.00,,2013-02-19 17:52:00,
2013-02-19 12:00:00,20.0,-99.9,-100.00,NW,304,11.0,29.0,-999,0.00,,,0.00,,2013-02-19 18:00:00,
2013-02-19 12:42:00,20.0,-99.9,-100.00,NW,304,11.0,29.0,-999,0.00,,,0.00,,2013-02-19 18:42:00,
2013-02-19 12:52:00,20.0,-99.9,-100.00,NW,304,11.0,29.0,-999,0.00,,,0.00,,2013-02-19 18:52:00,
2013-02-19 14:00:00,23.0,-99.9,-100.00,NW,312,9.0,21.0,-999,0.00,,,0.00,,2013-02-19 20:00:00,
2013-02-19 14:42:00,23.0,-99.9,-100.00,NW,312,9.0,21.0,-999,0.00,,,0.00,,2013-02-19 20:42:00,
2013-02-19 14:52:00,23.0,-99.9,-100.00,NW,312,9.0,21.0,-999,0.00,,,0.00,,2013-02-19 20:52:00,
2013-02-19 15:00:00,23.0,-99.9,-100.00,WNW,303,10.0,25.0,-999,0.00,,,0.00,,2013-02-19 21:00:00,
2013-02-19 15:42:00,23.0,-99.9,-100.00,WNW,303,10.0,25.0,-999,0.00,,,0.00,,2013-02-19 21:42:00,
2013-02-19 15:52:00,23.0,-99.9,-100.00,WNW,303,10.0,25.0,-999,0.00,,,0.00,,2013-02-19 21:52:00,
2013-02-19 16:00:00,23.0,-99.9,-100.00,NW,311,10.0,26.0,-999,0.00,,,0.00,,2013-02-19 22:00:00,
2013-02-19 16:42:00,23.0,-99.9,-100.00,NW,311,10.0,26.0,-999,0.00,,,0.00,,2013-02-19 22:42:00,
2013-02-19 16:52:00,23.0,-99.9,-100.00,NW,311,10.0,26.0,-999,0.00,,,0.00,,2013-02-19 22:52:00,
2013-02-19 17:00:00,22.0,-99.9,-100.00,NW,305,10.0,21.0,-999,0.00,,,0.00,,2013-02-19 23:00:00,
2013-02-19 17:42:00,22.0,-99.9,-100.00,NW,305,10.0,21.0,-999,0.00,,,0.00,,2013-02-19 23:42:00,
2013-02-19 17:52:00,22.0,-99.9,-100.00,NW,305,10.0,21.0,-999,0.00,,,0.00,,2013-02-19 23:52:00,
2013-02-19 18:00:00,21.0,-99.9,-100.00,WNW,297,8.0,18.0,-999,0.00,,,0.00,,2013-02-20 00:00:00,
2013-02-19 18:42:00,21.0,-99.9,-100.00,WNW,297,8.0,18.0,-999,0.00,,,0.00,,2013-02-20 00:42:00,
2013-02-19 18:52:00,21.0,-99.9,-100.00,WNW,297,8.0,18.0,-999,0.00,,,0.00,,2013-02-20 00:52:00,
2013-02-19 19:00:00,19.0,-99.9,-100.00,NW,304,8.0,21.0,-999,0.00,,,0.00,,2013-02-20 01:00:00,
2013-02-19 19:42:00,19.0,-99.9,-100.00,NW,304,8.0,21.0,-999,0.00,,,0.00,,2013-02-20 01:42:00,
2013-02-19 19:52:00,19.0,-99.9,-100.00,NW,304,8.0,21.0,-999,0.00,,,0.00,,2013-02-20 01:52:00,
2013-02-19 20:00:00,18.0,-99.9,-100.00,WNW,302,10.0,25.0,-999,0.00,,,0.00,,2013-02-20 02:00:00,
2013-02-19 20:42:00,18.0,-99.9,-100.00,WNW,302,10.0,25.0,-999,0.00,,,0.00,,2013-02-20 02:42:00,
2013-02-19 20:52:00,18.0,-99.9,-100.00,WNW,302,10.0,25.0,-999,0.00,,,0.00,,2013-02-20 02:52:00,
2013-02-19 21:00:00,17.0,-99.9,-100.00,NW,308,8.0,20.0,-999,0.00,,,0.00,,2013-02-20 03:00:00,
2013-02-19 21:42:00,17.0,-99.9,-100.00,NW,308,8.0,20.0,-999,0.00,,,0.00,,2013-02-20 03:42:00,
2013-02-19 21:52:00,17.0,-99.9,-100.00,NW,308,8.0,20.0,-999,0.00,,,0.00,,2013-02-20 03:52:00,
2013-02-19 22:00:00,15.0,-99.9,-100.00,NW,314,6.0,19.0,-999,0.00,,,0.00,,2013-02-20 04:00:00,
2013-02-19 22:42:00,15.0,-99.9,-100.00,NW,314,6.0,19.0,-999,0.00,,,0.00,,2013-02-20 04:42:00,
2013-02-19 22:52:00,15.0,-99.9,-100.00,NW,314,6.0,19.0,-999,0.00,,,0.00,,2013-02-20 04:52:00,
2013-02-19 23:00:00,12.0,-99.9,-100.00,North,353,6.0,16.0,-999,0.00,,,0.00,,2013-02-20 05:00:00,
2013-02-19 23:43:00,12.0,-99.9,-100.00,North,353,6.0,16.0,-999,0.00,,,0.00,,2013-02-20 05:43:00,
2013-02-19 23:52:00,12.0,-99.9,-100.00,North,353,6.0,16.0,-999,0.00,,,0.00,,2013-02-20 05:52:00,